This is the latest recevied weather packets stored in our database for station/object KF7MJQ-10. If no packets are shown the sender has not sent any weather packets the latest 10 day(s).
| Time | Temp. | Humidity | Pressure | Rain* | Wind** | Luminosity | Snow |
|---|---|---|---|---|---|---|---|
| 1777877747 | - | - | 1008.3 hPa | 0 mm | - | - | - |
| 1777877445 | - | - | 1008.3 hPa | 0 mm | - | - | - |
| 1777876224 | - | - | 1008.3 hPa | 0 mm | - | - | - |
| 1777873557 | 12.22° C | 1% | 1008.6 hPa | 0 mm | - | - | - |
| 1777872352 | 12.78° C | 1% | 1008.6 hPa | 0 mm | - | - | - |
| 1777872050 | 12.78° C | 1% | 1008.6 hPa | 0 mm | - | - | - |
| 1777871751 | 12.78° C | 1% | 1008.5 hPa | 0 mm | - | - | - |
| 1777870844 | 12.78° C | 1% | 1008.5 hPa | 0 mm | - | - | - |
| 1777870542 | 12.78° C | 1% | 1008.5 hPa | 0 mm | - | - | - |
| 1777870241 | 12.78° C | 1% | 1008.4 hPa | 0 mm | - | - | - |
| 1777869639 | 13.33° C | 1% | 1008.4 hPa | 0 mm | - | - | - |
| 1777868734 | 13.33° C | 1% | 1008.4 hPa | 0 mm | - | - | - |
| 1777868131 | 13.33° C | 1% | 1008.4 hPa | 0 mm | - | - | - |
| 1777866310 | 14.44° C | 1% | 1008.3 hPa | 0 mm | - | - | - |
| 1777865142 | 15.56° C | 1% | 1008.3 hPa | 0 mm | - | - | - |
| 1777864237 | 16.67° C | 1% | 1008.3 hPa | 0 mm | - | - | - |
| 1777862110 | 17.78° C | 35% | 1008.3 hPa | 0 mm | - | - | - |
| 1777861851 | 17.78° C | 39% | 1008.3 hPa | 0 mm | - | - | - |
| 1777860952 | 17.78° C | 51% | 1008.3 hPa | 0 mm | - | - | - |
| 1777860028 | 17.78° C | 57% | 1008.4 hPa | 0 mm | - | - | - |
| 1777859428 | 18.33° C | 60% | 1008.4 hPa | 0 mm | - | - | - |
| 1777857907 | 18.33° C | 62% | 1008.7 hPa | 0 mm | - | - | - |
| 1777857306 | 18.33° C | 62% | 1008.7 hPa | 0 mm | - | - | - |
| 1777855846 | 18.89° C | 60% | 1009 hPa | 0 mm | - | - | - |
| 1777854622 | 19.44° C | 58% | 1009.2 hPa | 0 mm | - | - | - |
* Rain latest hour (hover to see other rain measurements)
** Current wind speed in m/s (hover to see current wind gust speed)